Weather History for Sierra Vista, AZ

Change the Weather History Date:

Sunday, January 12, 2014

  Actual Average Record
Temperature  
Mean Temperature 55 °F -  
Max Temperature 66 °F 59 °F 75 °F (1990)
Min Temperature 44 °F 38 °F 21 °F (2013)
Degree Days  
Heating Degree Days 10    
Growing Degree Days 5 (Base 50)    
Moisture  
Dew Point 20 °F    
Average Humidity 28    
Maximum Humidity 43    
Minimum Humidity 14    
Precipitation  
Precipitation 0.00 in - - ()
Sea Level Pressure  
Sea Level Pressure 30.03 in    
Wind  
Wind Speed 9 mph (West)    
Max Wind Speed 23 mph    
Max Gust Speed 30 mph    
Visibility 10 miles    
Events      
Averages and records for this station are not official NWS values.
T = Trace of Precipitation, MM = Missing Value Source: NWS Daily Summary

Daily Weather History Graph

Daily Weather History Graph

Search for Another Location

Airport:

Trip Planner

Search our weather history database for the weather conditions in past years. The results will help you decide how hot, cold, wet, or windy it might be!

Date:

Astronomy

Jan. 12, 2014 Rise Set
Actual Time 7:21 AM MST 5:38 PM MST
Civil Twilight 6:55 AM MST 6:04 PM MST
Nautical Twilight 6:25 AM MST 6:34 PM MST
Astronomical Twilight 5:55 AM MST 7:03 PM MST
Moon 3:07 PM MST (1/12) 4:24 AM MST (1/12)
Length of Visible Light 11h 09m
Length of Day
10h 16m
Waxing Gibbous, 90% of the Moon is Illuminated
Jan 12
Waxing Gibbous
Jan 15
Full
Jan 23
Last Quarter
Jan 30
New
Feb 6
First Quarter

Hourly Weather History & Observations

Time (MST) Temp. Windchill Dew Point Humidity Pressure Visibility Wind Dir Wind Speed Gust Speed Precip Events Conditions
12:56 AM 44.1 °F 41.5 °F 18.0 °F 35% 30.02 in 10.0 mi South 4.6 mph - N/A   Clear
1:56 AM 46.0 °F 41.9 °F 19.0 °F 34% 29.99 in 10.0 mi SSE 8.1 mph - N/A   Clear
2:56 AM 48.0 °F - 18.0 °F 30% 29.97 in 10.0 mi Variable 3.5 mph - N/A   Clear
3:56 AM 46.0 °F 44.8 °F 18.0 °F 33% 29.97 in 10.0 mi WNW 3.5 mph - N/A   Clear
4:56 AM 46.0 °F - 18.0 °F 33% 29.96 in 10.0 mi Calm Calm - N/A   Clear
5:56 AM 45.0 °F 43.5 °F 18.0 °F 34% 29.99 in 10.0 mi Variable 3.5 mph - N/A   Clear
6:56 AM 45.0 °F - 18.0 °F 34% 30.00 in 10.0 mi Calm Calm - N/A   Clear
7:56 AM 57.0 °F - 15.1 °F 19% 29.98 in 10.0 mi SSW 9.2 mph - N/A   Clear
8:56 AM 55.9 °F - 19.0 °F 24% 30.04 in 10.0 mi NW 16.1 mph - N/A   Clear
9:56 AM 59.0 °F - 19.9 °F 22% 30.05 in 10.0 mi WNW 13.8 mph - N/A   Clear
10:56 AM 63.0 °F - 19.0 °F 18% 30.02 in 10.0 mi NW 10.4 mph - N/A   Clear
11:56 AM 66.0 °F - 17.1 °F 15% 30.00 in 10.0 mi WSW 13.8 mph 25.3 mph N/A   Clear
12:56 PM 64.9 °F - 16.0 °F 15% 29.98 in 10.0 mi WNW 15.0 mph 20.7 mph N/A   Clear
1:56 PM 66.9 °F - 15.1 °F 14% 29.96 in 10.0 mi WSW 23.0 mph 29.9 mph N/A   Clear
2:56 PM 66.0 °F - 17.1 °F 15% 29.97 in 10.0 mi WNW 16.1 mph 24.2 mph N/A   Clear
3:56 PM 63.0 °F - 21.0 °F 20% 30.00 in 10.0 mi WNW 12.7 mph - N/A   Clear
4:56 PM 61.0 °F - 19.9 °F 21% 30.02 in 10.0 mi WNW 11.5 mph - N/A   Clear
5:56 PM 55.0 °F - 21.9 °F 28% 30.08 in 10.0 mi WNW 10.4 mph - N/A   Clear
6:56 PM 52.0 °F - 23.0 °F 32% 30.10 in 10.0 mi West 13.8 mph - N/A   Clear
7:56 PM 50.0 °F - 23.0 °F 35% 30.07 in 10.0 mi West 17.3 mph - N/A   Clear
8:56 PM 48.0 °F - 23.0 °F 37% 30.12 in 10.0 mi WNW 10.4 mph - N/A   Clear
9:56 PM 48.0 °F - 24.1 °F 39% 30.12 in 10.0 mi West 10.4 mph - N/A   Clear
10:55 PM 46.4 °F 39.8 °F 24.8 °F 43% 30.14 in 10.0 mi West 16.1 mph - N/A   Partly Cloudy
11:55 PM 46.4 °F 41.1 °F 24.8 °F 43% 30.16 in 10.0 mi West 11.5 mph - N/A   Partly Cloudy